Time,TemperatureF,DewpointF,PressureIn,WindDirection,WindDirectionDegrees,WindSpeedMPH,WindSpeedGustMPH,Humidity,HourlyPrecipIn,Conditions,Clouds,dailyrainin,SoftwareType,DateUTC
2013-04-19 00:11:00,69.3,56.0,29.78,West,263,4.0,11.0,62,0.00,,,0.00,weatherlink.com 1.10,2013-04-19 04:11:00,
2013-04-19 00:31:00,69.5,55.0,29.76,NW,326,4.0,14.0,60,0.00,,,0.00,weatherlink.com 1.10,2013-04-19 04:31:00,
2013-04-19 00:49:00,69.8,55.0,29.77,NNW,344,5.0,14.0,59,0.00,,,0.00,weatherlink.com 1.10,2013-04-19 04:49:00,
2013-04-19 01:07:00,69.3,54.0,29.77,NNW,336,2.0,9.0,59,0.00,,,0.00,weatherlink.com 1.10,2013-04-19 05:07:00,
2013-04-19 01:27:00,68.8,54.0,29.74,ENE,68,7.0,7.0,60,0.00,,,0.00,weatherlink.com 1.10,2013-04-19 05:27:00,
2013-04-19 01:45:00,68.7,54.0,29.73,East,80,5.0,8.0,60,0.00,,,0.00,weatherlink.com 1.10,2013-04-19 05:45:00,
2013-04-19 02:03:00,68.5,54.0,29.73,NNW,330,7.0,14.0,61,0.00,,,0.00,weatherlink.com 1.10,2013-04-19 06:03:00,
2013-04-19 02:23:00,67.9,54.0,29.72,SSW,201,2.0,11.0,62,0.00,,,0.00,weatherlink.com 1.10,2013-04-19 06:23:00,
2013-04-19 02:41:00,67.6,54.0,29.70,ESE,110,6.0,11.0,63,0.00,,,0.00,weatherlink.com 1.10,2013-04-19 06:41:00,
2013-04-19 02:59:00,67.6,54.0,29.69,WNW,299,3.0,13.0,63,0.00,,,0.00,weatherlink.com 1.10,2013-04-19 06:59:00,
2013-04-19 03:19:00,67.5,55.0,29.68,WNW,301,5.0,19.0,64,0.00,,,0.00,weatherlink.com 1.10,2013-04-19 07:19:00,
2013-04-19 03:37:00,67.1,55.0,29.68,NW,304,2.0,8.0,65,0.00,,,0.00,weatherlink.com 1.10,2013-04-19 07:37:00,
2013-04-19 03:55:00,66.8,55.0,29.68,WSW,243,2.0,10.0,65,0.00,,,0.00,weatherlink.com 1.10,2013-04-19 07:55:00,
2013-04-19 04:13:00,66.8,55.0,29.68,NNE,12,3.0,9.0,66,0.00,,,0.00,weatherlink.com 1.10,2013-04-19 08:13:00,
2013-04-19 04:33:00,66.6,55.0,29.66,WNW,297,3.0,10.0,67,0.00,,,0.00,weatherlink.com 1.10,2013-04-19 08:33:00,
2013-04-19 04:51:00,66.7,55.0,29.66,WSW,249,0.0,10.0,67,0.00,,,0.00,weatherlink.com 1.10,2013-04-19 08:51:00,
2013-04-19 05:09:00,66.6,56.0,29.64,WNW,297,6.0,12.0,68,0.00,,,0.00,weatherlink.com 1.10,2013-04-19 09:09:00,
2013-04-19 05:29:00,66.6,56.0,29.64,NW,314,4.0,13.0,69,0.00,,,0.00,weatherlink.com 1.10,2013-04-19 09:29:00,
2013-04-19 05:47:00,66.7,56.0,29.63,NW,326,3.0,10.0,69,0.00,,,0.00,weatherlink.com 1.10,2013-04-19 09:47:00,
2013-04-19 06:05:00,66.9,56.0,29.63,NW,309,4.0,15.0,69,0.00,,,0.00,weatherlink.com 1.10,2013-04-19 10:05:00,
2013-04-19 06:25:00,67.1,57.0,29.62,NNW,335,9.0,13.0,69,0.00,,,0.00,weatherlink.com 1.10,2013-04-19 10:25:00,
2013-04-19 06:43:00,67.3,57.0,29.61,NW,316,2.0,18.0,69,0.00,,,0.00,weatherlink.com 1.10,2013-04-19 10:43:00,
2013-04-19 07:01:00,67.2,57.0,29.61,North,11,5.0,16.0,69,0.00,,,0.00,weatherlink.com 1.10,2013-04-19 11:01:00,
2013-04-19 07:21:00,67.4,57.0,29.61,NNW,339,3.0,18.0,69,0.00,,,0.00,weatherlink.com 1.10,2013-04-19 11:21:00,
2013-04-19 07:39:00,67.4,57.0,29.61,West,269,9.0,12.0,69,0.00,,,0.00,weatherlink.com 1.10,2013-04-19 11:39:00,
2013-04-19 07:57:00,67.5,57.0,29.61,WNW,290,8.0,16.0,69,0.00,,,0.00,weatherlink.com 1.10,2013-04-19 11:57:00,
2013-04-19 08:15:00,67.7,57.0,29.60,ENE,65,2.0,12.0,69,0.00,,,0.00,weatherlink.com 1.10,2013-04-19 12:15:00,
2013-04-19 08:35:00,68.2,57.0,29.58,West,280,1.0,14.0,68,0.00,,,0.00,weatherlink.com 1.10,2013-04-19 12:35:00,
2013-04-19 08:53:00,68.4,57.0,29.57,WNW,295,1.0,13.0,67,0.00,,,0.00,weatherlink.com 1.10,2013-04-19 12:53:00,
2013-04-19 09:11:00,69.0,57.0,29.57,NW,319,1.0,16.0,66,0.00,,,0.00,weatherlink.com 1.10,2013-04-19 13:11:00,
2013-04-19 09:31:00,69.0,57.0,29.56,NW,319,4.0,13.0,66,0.00,,,0.00,weatherlink.com 1.10,2013-04-19 13:31:00,
2013-04-19 09:49:00,69.2,57.0,29.55,West,281,6.0,14.0,66,0.00,,,0.00,weatherlink.com 1.10,2013-04-19 13:49:00,
2013-04-19 10:07:00,70.2,56.0,29.55,WSW,242,6.0,18.0,62,0.00,,,0.00,weatherlink.com 1.10,2013-04-19 14:07:00,
2013-04-19 10:27:00,71.3,57.0,29.53,SW,233,3.0,16.0,61,0.00,,,0.00,weatherlink.com 1.10,2013-04-19 14:27:00,
2013-04-19 10:45:00,71.1,57.0,29.53,NW,323,2.0,17.0,62,0.00,,,0.00,weatherlink.com 1.10,2013-04-19 14:45:00,
2013-04-19 11:03:00,71.6,57.0,29.54,North,8,4.0,13.0,61,0.00,,,0.00,weatherlink.com 1.10,2013-04-19 15:03:00,
2013-04-19 11:21:00,71.7,57.0,29.55,NW,305,1.0,10.0,61,0.00,,,0.00,weatherlink.com 1.10,2013-04-19 15:21:00,
2013-04-19 11:41:00,69.5,59.0,29.55,ENE,74,2.0,11.0,70,0.01,,,0.01,weatherlink.com 1.10,2013-04-19 15:41:00,
2013-04-19 11:59:00,66.9,60.0,29.54,WNW,295,2.0,9.0,79,0.05,,,0.05,weatherlink.com 1.10,2013-04-19 15:59:00,
2013-04-19 12:17:00,66.5,60.0,29.52,WNW,297,2.0,6.0,80,0.06,,,0.06,weatherlink.com 1.10,2013-04-19 16:17:00,
2013-04-19 12:37:00,69.3,60.0,29.50,SE,133,1.0,24.0,72,0.06,,,0.06,weatherlink.com 1.10,2013-04-19 16:37:00,
2013-04-19 12:55:00,71.2,60.0,29.50,ENE,75,4.0,20.0,67,0.01,,,0.06,weatherlink.com 1.10,2013-04-19 16:55:00,
2013-04-19 13:13:00,73.0,59.0,29.47,NW,313,6.0,19.0,61,0.00,,,0.06,weatherlink.com 1.10,2013-04-19 17:13:00,
2013-04-19 13:33:00,74.0,59.0,29.47,ENE,77,7.0,21.0,59,0.00,,,0.06,weatherlink.com 1.10,2013-04-19 17:33:00,
2013-04-19 13:51:00,74.3,58.0,29.46,NE,50,16.0,23.0,58,0.00,,,0.06,weatherlink.com 1.10,2013-04-19 17:51:00,
2013-04-19 14:09:00,74.2,58.0,29.46,NNE,24,5.0,22.0,57,0.00,,,0.06,weatherlink.com 1.10,2013-04-19 18:09:00,
2013-04-19 14:29:00,58.8,55.0,29.54,ESE,122,1.0,18.0,86,0.09,,,0.15,weatherlink.com 1.10,2013-04-19 18:29:00,
2013-04-19 14:47:00,54.8,51.0,29.58,East,99,8.0,24.0,88,0.09,,,0.15,weatherlink.com 1.10,2013-04-19 18:47:00,
2013-04-19 15:05:00,54.1,51.0,29.59,ESE,112,4.0,14.0,89,0.09,,,0.15,weatherlink.com 1.10,2013-04-19 19:05:00,
2013-04-19 15:23:00,53.4,51.0,29.60,ESE,121,9.0,14.0,91,0.02,,,0.17,weatherlink.com 1.10,2013-04-19 19:23:00,
2013-04-19 15:43:00,51.5,48.0,29.64,East,101,3.0,13.0,88,0.03,,,0.18,weatherlink.com 1.10,2013-04-19 19:43:00,
2013-04-19 16:01:00,50.6,48.0,29.64,ESE,105,5.0,12.0,90,0.03,,,0.18,weatherlink.com 1.10,2013-04-19 20:01:00,
2013-04-19 16:19:00,50.1,48.0,29.64,ESE,114,2.0,7.0,92,0.01,,,0.18,weatherlink.com 1.10,2013-04-19 20:19:00,
2013-04-19 16:39:00,48.8,46.0,29.66,ESE,108,6.0,10.0,91,0.01,,,0.19,weatherlink.com 1.10,2013-04-19 20:39:00,
2013-04-19 16:57:00,48.0,46.0,29.69,East,100,7.0,9.0,93,0.04,,,0.22,weatherlink.com 1.10,2013-04-19 20:57:00,
2013-04-19 17:15:00,47.5,46.0,29.69,ESE,120,3.0,8.0,94,0.06,,,0.24,weatherlink.com 1.10,2013-04-19 21:15:00,
2013-04-19 17:35:00,47.1,45.0,29.69,SSE,147,2.0,16.0,91,0.07,,,0.25,weatherlink.com 1.10,2013-04-19 21:35:00,
2013-04-19 17:53:00,47.0,44.0,29.70,East,82,2.0,12.0,88,0.03,,,0.25,weatherlink.com 1.10,2013-04-19 21:53:00,
2013-04-19 18:11:00,47.3,44.0,29.72,ENE,61,3.0,13.0,87,0.01,,,0.25,weatherlink.com 1.10,2013-04-19 22:11:00,
2013-04-19 18:31:00,47.4,43.0,29.72,NE,55,12.0,12.0,85,0.00,,,0.25,weatherlink.com 1.10,2013-04-19 22:31:00,
2013-04-19 18:49:00,47.4,43.0,29.73,NE,41,8.0,12.0,83,0.00,,,0.25,weatherlink.com 1.10,2013-04-19 22:49:00,
2013-04-19 19:07:00,47.5,42.0,29.73,East,92,1.0,8.0,82,0.00,,,0.25,weatherlink.com 1.10,2013-04-19 23:07:00,
2013-04-19 19:25:00,47.3,42.0,29.74,ESE,105,6.0,11.0,82,0.00,,,0.25,weatherlink.com 1.10,2013-04-19 23:25:00,
2013-04-19 19:45:00,47.2,41.0,29.74,SE,139,6.0,11.0,78,0.00,,,0.25,weatherlink.com 1.10,2013-04-19 23:45:00,
2013-04-19 20:03:00,47.2,40.0,29.74,ESE,108,6.0,10.0,76,0.00,,,0.25,weatherlink.com 1.10,2013-04-20 00:03:00,
2013-04-19 20:21:00,47.0,39.0,29.75,SE,134,2.0,7.0,74,0.00,,,0.25,weatherlink.com 1.10,2013-04-20 00:21:00,
2013-04-19 20:41:00,46.8,39.0,29.76,SE,124,2.0,7.0,73,0.00,,,0.25,weatherlink.com 1.10,2013-04-20 00:41:00,
2013-04-19 20:59:00,46.6,38.0,29.77,ESE,119,3.0,10.0,73,0.00,,,0.25,weatherlink.com 1.10,2013-04-20 00:59:00,
2013-04-19 21:17:00,46.6,39.0,29.78,ESE,121,4.0,6.0,74,0.00,,,0.25,weatherlink.com 1.10,2013-04-20 01:17:00,
2013-04-19 21:35:00,46.5,38.0,29.79,SE,136,6.0,11.0,71,0.00,,,0.25,weatherlink.com 1.10,2013-04-20 01:35:00,
2013-04-19 21:55:00,46.3,37.0,29.80,ESE,117,15.0,15.0,70,0.00,,,0.25,weatherlink.com 1.10,2013-04-20 01:55:00,
2013-04-19 22:13:00,45.7,35.0,29.80,East,89,6.0,15.0,67,0.00,,,0.25,weatherlink.com 1.10,2013-04-20 02:13:00,
2013-04-19 22:31:00,45.3,35.0,29.82,SE,136,5.0,10.0,67,0.00,,,0.25,weatherlink.com 1.10,2013-04-20 02:31:00,
2013-04-19 22:51:00,44.9,34.0,29.82,ESE,120,6.0,13.0,66,0.00,,,0.25,weatherlink.com 1.10,2013-04-20 02:51:00,
2013-04-19 23:09:00,44.8,34.0,29.82,ESE,109,8.0,10.0,65,0.00,,,0.25,weatherlink.com 1.10,2013-04-20 03:09:00,
2013-04-19 23:27:00,44.5,32.0,29.83,NE,41,11.0,15.0,63,0.00,,,0.25,weatherlink.com 1.10,2013-04-20 03:27:00,
2013-04-19 23:47:00,44.3,32.0,29.83,SE,146,3.0,14.0,63,0.00,,,0.25,weatherlink.com 1.10,2013-04-20 03:47:00,